Location: Piotrkow Trybunalski
(51.4000°N, 19.6830°E)
Time: 19:08:23
(UTC+01:00)

Vanguard 1 - Visible Passes

Search period start: 30 January 2023 00:00
Search period end: 09 February 2023 00:00
Orbit: 649 x 3831 km, 34.2° (Epoch: 29 January)

Date Brightness Start Highest point End Pass type
(mag) Time Alt. Az. Time Alt. Az. Time Alt. Az.
30 Jan 13.0 04:15:34 10° SSE 04:20:35 15° SE 04:27:06 10° ESE visible
30 Jan 12.9 06:30:25 10° SW 06:39:44 35° SSE 06:54:55 10° ESE visible
31 Jan 12.8 04:34:18 10° S 04:40:20 20° SE 04:48:53 10° ESE visible
01 Feb 12.6 04:53:35 10° SSW 05:00:14 24° SSE 05:10:12 10° ESE visible
02 Feb 12.5 05:13:11 10° SSW 05:20:14 27° SSE 05:31:15 10° ESE visible
03 Feb 12.7 03:19:44 10° SSE 03:21:44 11° SE 03:23:57 10° ESE visible
03 Feb 12.5 05:33:00 10° SW 05:40:20 30° SSE 05:52:07 10° ESE visible
04 Feb 12.5 03:38:16 11° SSE 03:41:31 15° SE 03:46:33 10° ESE visible
04 Feb 12.5 05:52:58 10° SW 06:00:32 32° SSE 06:12:51 10° ESE visible
05 Feb 12.3 03:57:53 14° S 04:01:25 18° SSE 04:08:01 10° ESE visible
05 Feb 12.5 06:13:05 10° SW 06:20:49 32° S 06:33:27 10° ESE visible
06 Feb 12.1 04:17:30 15° S 04:21:25 22° SSE 04:29:06 10° ESE visible
06 Feb 12.5 06:33:19 10° WSW 06:41:08 32° S 06:53:52 10° SE visible
07 Feb 12.1 04:37:04 15° SSW 04:41:30 24° SSE 04:49:57 10° ESE visible
08 Feb 12.0 04:56:38 13° SW 05:01:40 26° SSE 05:10:37 10° ESE visible
